Location: Castelbiague
(43.0361°N, 0.9246°E)
Time: 09:37:26
(UTC+00:00)

ALOS 2 - Pass Details

Date: 17 June 2021
Orbit: 630 x 632 km, 97.9° (Epoch: 03 August)

Event Time Altitude Azimuth Distance (km) Brightness Sun altitude
Exits shadow 22:32:56 23° 92° (E) 1,338 4.0 -20.8°
Maximum altitude 22:34:02 26° 67° (ENE) 1,249 4.1 -20.8°
Drops below altitude 10° 22:37:41 10° 11° (NNE) 2,023 6.0 -21.1°
Sets 22:40:09 0° 359° (N) 2,936 7.3 -21.2°
